Weather reports worldwide

Advertisment
Gueret-St Laurent, France (7361): temperature & dewpoint: 16.02.2019 22:00:00 - 22.02.2019 22:00:00 (CET)Gueret-St Laurent, France (7361): temperature 5cm: 16.02.2019 22:00:00 - 22.02.2019 22:00:00 (CET)Gueret-St Laurent, France (7361): temperature -20cm & temperature -100cm: 16.02.2019 22:00:00 - 22.02.2019 22:00:00 (CET)Gueret-St Laurent, France (7361): wind speed & gusts: 16.02.2019 22:00:00 - 22.02.2019 22:00:00 (CET)Gueret-St Laurent, France (7361): wind direction: 16.02.2019 22:00:00 - 22.02.2019 22:00:00 (CET)Gueret-St Laurent, France (7361): reduced air pressure: 16.02.2019 22:00:00 - 22.02.2019 22:00:00 (CET)Gueret-St Laurent, France (7361): visibility: 16.02.2019 22:00:00 - 22.02.2019 22:00:00 (CET)Gueret-St Laurent, France (7361): sunshine duration: 16.02.2019 22:00:00 - 22.02.2019 22:00:00 (CET)Gueret-St Laurent, France (7361): precipitation: 16.02.2019 22:00:00 - 22.02.2019 22:00:00 (CET)
Date & Time tt [°C] td [°C] tt 5cm [°C] tt -20cm [°C] tt -100cm [°C] ff [km/h] ff [kn] fx [km/h] fx [kn] dd ppp [hPa] vv [km] sd [min] rr [mm]
22.02.2019 22:00:00 4,3 1,7 -0,7 6,6 7,7 0 0 4 2 N 1033,5 20 0 0,0
22.02.2019 21:00:00 5,9 2,4 0,4 6,5 7,7 3 2 5 3 ESE 1033,2 20 0 0,0
22.02.2019 20:00:00 8,3 2,3 1,7 6,4 7,7 3 2 6 3 E 1032,8 15 0 0,0
22.02.2019 19:00:00 11,6 2,9 4,2 6,3 7,7 4 2 14 8 E 1032,4 20 0 0,0
22.02.2019 18:00:00 14,6 4,0 12,4 6,2 7,7 11 6 29 15 NE 1031,6 20 42 0,0
22.02.2019 17:00:00 16,6 4,9 17,8 6,2 7,7 12 7 29 16 E 1031,3 20 60 0,0
22.02.2019 16:00:00 17,0 5,0 20,0 6,1 7,7 16 9 28 15 ENE 1031,3 20 60 0,0
22.02.2019 15:00:00 17,3 3,9 21,0 6,1 7,7 14 8 30 16 E 1031,4 20 60 0,0
22.02.2019 14:00:00 16,3 2,7 20,7 6,1 7,7 16 8 34 18 E 1032,1 20 60 0,0
22.02.2019 13:00:00 15,1 4,2 20,2 6,1 7,7 16 9 32 18 E 1032,8 19 60 0,0
22.02.2019 12:00:00 14,4 4,1 17,8 6,2 7,7 17 9 29 16 E 1033,2 20 60 0,0
22.02.2019 11:00:00 10,1 3,6 12,3 6,2 7,7 6 4 10 5 E 1034,1 20 60 0,0
22.02.2019 10:00:00 4,9 1,0 5,0 6,3 7,7 3 2 6 3 E 1035,6 20 60 0,0
22.02.2019 09:00:00 0,8 -0,2 -4,5 6,4 7,7 4 2 9 5 E 1035,8 20 53 0,0
22.02.2019 08:00:00 -2,9 -3,9 -5,9 6,4 7,7 6 3 9 5 E 1035,8 15 0 0,0
22.02.2019 07:00:00 -2,0 -2,8 -5,4 6,5 7,7 3 1 8 4 E 1035,3 17 0 0,0
22.02.2019 06:00:00 -1,5 -2,8 -4,6 6,5 7,7 5 3 12 7 E 1035,1 19 0 0,0
22.02.2019 05:00:00 -1,4 -2,4 -4,7 6,5 7,7 4 2 10 6 E 1034,6 20 0 0,0
22.02.2019 04:00:00 -1,0 -2,4 -4,2 6,6 7,7 5 3 13 7 E 1034,5 20 0 0,0
22.02.2019 03:00:00 -1,0 -2,7 -4,0 6,6 7,7 6 3 14 7 ENE 1034,4 16 0 0,0
22.02.2019 02:00:00 0,9 -1,5 -1,9 6,6 7,7 8 5 15 8 E 1034,2 20 0 0,0
22.02.2019 01:00:00 1,9 -0,7 -2,1 6,6 7,7 8 4 14 8 E 1034,1 20 0 0,0
22.02.2019 00:00:00 1,0 -1,4 -2,8 6,6 7,7 9 5 14 7 E 1034,1 20 0 0,0
21.02.2019 23:00:00 1,9 0,0 -2,5 6,6 7,7 6 4 8 5 ENE 1033,8 20 0 0,0
21.02.2019 22:00:00 2,6 -0,3 -2,0 6,5 7,7 5 3 8 4 ENE 1032,9 16 0 0,0
21.02.2019 21:00:00 4,1 0,2 -0,9 6,4 7,7 5 3 7 4 ESE 1032,1 19 0 0,0
21.02.2019 20:00:00 6,8 0,5 0,4 6,4 7,7 2 1 6 3 SE 1031,0 20 0 0,0
21.02.2019 19:00:00 10,7 -0,5 4,0 6,2 7,7 3 1 6 3 S 1029,8 20 0 0,0
21.02.2019 18:00:00 14,5 0,3 9,2 6,2 7,7 6 3 14 8 N 1028,5 20 40 0,0
21.02.2019 17:00:00 17,2 -1,0 18,0 6,1 7,7 7 4 13 7 NNE 1027,7 20 60 0,0
21.02.2019 16:00:00 18,7 -0,2 22,8 6,0 7,7 4 2 10 5 W 1027,3 20 60 0,0
21.02.2019 15:00:00 18,2 -0,1 23,8 6,0 7,7 2 1 9 5 SSE 1027,3 20 60 0,0
21.02.2019 14:00:00 17,6 2,7 23,1 6,0 7,7 3 2 9 5 NW 1027,6 19 60 0,0
21.02.2019 13:00:00 16,0 4,4 24,2 6,0 7,7 3 2 8 5 N 1028,3 20 60 0,0
21.02.2019 12:00:00 14,2 3,3 17,3 6,1 7,7 0 0 11 6 N 1028,9 20 60 0,0
21.02.2019 11:00:00 9,7 2,8 10,0 6,1 7,7 8 4 18 10 E 1029,4 20 60 0,0
21.02.2019 10:00:00 5,0 1,1 3,0 6,2 7,7 13 7 20 11 ESE 1030,0 20 60 0,0
21.02.2019 09:00:00 1,4 -0,1 -2,9 6,2 7,7 11 6 15 8 E 1030,4 20 48 0,0
21.02.2019 08:00:00 -1,1 -1,7 -5,7 6,3 7,7 8 5 12 6 E 1030,2 19 0 0,0
21.02.2019 07:00:00 -1,2 -2,5 -3,9 6,4 7,7 5 3 15 8 E 1029,7 15 0 0,0
21.02.2019 06:00:00 -1,0 -1,6 -6,2 6,4 7,7 10 6 15 8 E 1029,4 15 0 0,0
21.02.2019 05:00:00 -2,2 -3,0 -5,5 6,4 7,7 2 1 12 6 E 1029,5 7 0 0,0
21.02.2019 04:00:00 -0,2 -1,3 -3,3 6,5 7,7 5 3 16 9 E 1029,1 13 0 0,0
21.02.2019 03:00:00 1,4 0,4 -2,9 6,5 7,7 8 5 18 10 ESE 1028,6 17 0 0,0
21.02.2019 02:00:00 0,9 0,3 -4,1 6,5 7,7 6 4 15 8 E 1028,5 15 0 0,0
21.02.2019 01:00:00 -0,6 -1,4 -4,4 6,5 7,7 8 4 11 6 E 1028,5 10 0 0,0
21.02.2019 00:00:00 0,4 -0,6 -3,2 6,5 7,6 3 2 9 5 ENE 1028,0 11 0 0,0
20.02.2019 23:00:00 1,4 0,2 -3,2 6,5 7,7 4 2 10 5 ESE 1027,3 13 0 0,0
20.02.2019 22:00:00 3,2 2,2 -1,6 6,4 7,6 4 2 7 4 ESE 1026,7 20 0 0,0
20.02.2019 21:00:00 3,8 2,2 -1,3 6,4 7,7 2 1 8 5 ESE 1026,1 20 0 0,0
20.02.2019 20:00:00 6,0 2,3 0,5 6,2 7,6 0 0 6 4 N 1025,7 20 0 0,0
20.02.2019 19:00:00 10,3 3,3 2,4 6,2 7,7 4 2 6 4 SSE 1024,3 20 0 0,0
20.02.2019 18:00:00 13,6 3,6 9,9 6,1 7,7 5 3 12 7 E 1023,4 20 37 0,0
20.02.2019 17:00:00 15,6 2,7 17,1 6,0 7,6 0 0 11 6 N 1022,8 20 60 0,0
20.02.2019 16:00:00 16,0 4,1 19,9 6,0 7,6 7 4 13 7 ESE 1022,7 20 60 0,0
20.02.2019 15:00:00 15,3 4,0 20,8 5,9 7,6 4 2 11 6 ENE 1023,0 20 60 0,0
20.02.2019 14:00:00 14,8 4,8 20,4 6,0 7,6 5 3 11 6 E 1023,4 20 60 0,0
20.02.2019 13:00:00 13,3 5,0 19,1 6,0 7,6 3 1 12 6 ENE 1024,0 20 54 0,0
20.02.2019 12:00:00 11,4 5,5 13,7 6,0 7,6 6 3 11 6 ESE 1024,5 20 42 0,0
20.02.2019 11:00:00 8,2 4,0 10,2 6,1 7,6 8 4 14 7 ESE 1024,9 20 60 0,0
20.02.2019 10:00:00 4,2 2,2 1,6 6,1 7,6 8 4 12 6 E 1025,2 18 60 0,0
20.02.2019 09:00:00 0,2 -0,2 -4,4 6,2 7,6 5 3 10 6 E 1025,4 10 36 0,0
20.02.2019 08:00:00 -1,6 -2,2 -4,9 6,2 7,6 5 3 11 6 ESE 1025,0 9 0 0,0
20.02.2019 07:00:00 -1,4 -2,4 -4,1 6,3 7,7 7 4 14 7 E 1024,4 8 0 0,0
20.02.2019 06:00:00 -0,1 -1,0 -1,8 6,3 7,6 8 5 20 11 ESE 1024,1 10 0 0,0
20.02.2019 05:00:00 0,6 -0,1 -1,1 6,3 7,6 13 7 17 9 ESE 1023,9 13 0 0,0
20.02.2019 04:00:00 0,4 -0,3 -1,6 6,4 7,6 8 5 14 8 E 1023,9 11 0 0,0
20.02.2019 03:00:00 0,7 0,1 -1,8 6,4 7,6 8 4 14 7 ESE 1024,1 12 0 0,0
20.02.2019 02:00:00 0,8 0,4 -3,5 6,4 7,6 8 5 11 6 ESE 1024,0 9 0 0,0
20.02.2019 01:00:00 0,5 -0,1 -3,6 6,4 7,6 8 4 11 6 ESE 1024,2 7 0 0,0
20.02.2019 00:00:00 0,0 -1,1 -3,4 6,3 7,6 4 2 6 3 E 1024,3 6 0 0,0
19.02.2019 23:00:00 1,7 0,7 -2,4 6,3 7,7 3 1 4 2 ESE 1024,0 6 0 0,0
19.02.2019 22:00:00 2,9 1,6 -1,6 6,2 7,6 2 1 4 2 SE 1023,6 9 0 0,0
19.02.2019 21:00:00 4,8 3,0 0,6 6,2 7,6 0 0 5 3 N 1022,9 14 0 0,0
19.02.2019 20:00:00 7,1 3,9 2,9 6,1 7,6 0 0 5 3 N 1022,4 19 0 0,0
19.02.2019 19:00:00 8,6 4,0 4,6 6,0 7,6 2 1 14 7 N 1021,8 20 0 0,0
19.02.2019 18:00:00 10,8 4,0 8,2 5,9 7,6 2 1 13 7 NNW 1020,8 20 35 0,0
19.02.2019 17:00:00 12,6 4,8 14,0 5,8 7,6 6 4 16 9 NNW 1020,6 20 60 0,0
19.02.2019 16:00:00 12,9 5,1 16,4 5,8 7,6 14 7 25 13 N 1020,8 20 60 0,0
19.02.2019 15:00:00 13,6 4,5 16,9 5,7 7,6 9 5 18 10 N 1020,9 20 46 0,0
19.02.2019 14:00:00 13,5 4,6 16,4 5,7 7,7 6 4 14 8 N 1021,2 20 49 0,0
19.02.2019 13:00:00 11,6 4,6 13,9 5,7 7,6 3 2 11 6 N 1022,0 20 17 0,0
19.02.2019 12:00:00 11,5 3,8 15,8 5,7 7,6 6 3 14 8 WNW 1023,0 20 44 0,0
19.02.2019 11:00:00 10,5 4,0 11,5 5,7 7,6 5 3 9 5 ENE 1023,2 20 60 0,0
19.02.2019 10:00:00 6,8 3,0 4,8 5,8 7,7 4 2 11 6 E 1023,6 20 18 0,0
19.02.2019 09:00:00 4,3 1,5 1,2 5,8 7,6 6 4 13 7 E 1023,6 20 0 0,0
19.02.2019 08:00:00 1,7 0,2 0,0 5,8 7,6 0 0 8 4 N 1023,3 20 0 0,0
19.02.2019 07:00:00 1,1 -0,4 0,1 5,9 7,6 0 0 6 4 N 1022,8 20 0 0,0
19.02.2019 06:00:00 0,9 -0,6 -0,6 5,9 7,6 3 1 7 4 E 1023,0 20 0 0,0
19.02.2019 05:00:00 1,2 -0,4 -1,6 5,9 7,6 6 3 11 6 ESE 1022,6 20 0 0,0
19.02.2019 04:00:00 0,8 -1,0 -2,0 5,9 7,6 10 5 14 8 ESE 1022,5 20 0 0,0
19.02.2019 03:00:00 2,5 0,7 -2,3 5,9 7,7 6 4 12 7 ESE 1022,5 20 0 0,0
19.02.2019 02:00:00 1,1 -0,5 -2,0 5,9 7,6 4 2 9 5 E 1022,8 20 0 0,0
19.02.2019 01:00:00 1,7 -0,1 -2,2 5,9 7,6 4 2 10 5 NNE 1022,5 20 0 0,0
19.02.2019 00:00:00 3,1 -0,5 -1,9 5,9 7,7 4 2 8 4 SE 1022,0 20 0 0,0
18.02.2019 23:00:00 3,8 0,1 -0,6 5,9 7,7 4 2 13 7 E 1021,6 20 0 0,0
18.02.2019 22:00:00 3,8 0,1 -0,7 5,8 7,6 6 3 10 5 E 1020,9 20 0 0,0
18.02.2019 21:00:00 4,6 0,7 0,1 5,8 7,7 3 2 6 4 ESE 1020,4 20 0 0,0
18.02.2019 20:00:00 6,8 0,2 0,9 5,7 7,6 3 1 11 6 ESE 1019,6 18 0 0,0
18.02.2019 19:00:00 10,6 0,9 4,8 5,6 7,7 4 2 11 6 SSW 1018,7 20 0 0,0
18.02.2019 18:00:00 13,1 0,8 8,4 5,5 7,6 4 2 17 9 SW 1017,7 20 28 0,0
18.02.2019 17:00:00 16,2 0,3 16,8 5,5 7,6 8 4 21 11 SW 1017,1 20 60 0,0
18.02.2019 16:00:00 16,4 1,3 18,7 5,4 7,7 14 8 25 13 S 1017,0 20 60 0,0
18.02.2019 15:00:00 16,3 0,8 19,6 5,4 7,7 14 7 29 16 SSW 1017,2 20 60 0,0
18.02.2019 14:00:00 16,5 1,0 21,3 5,4 7,7 10 6 27 14 SW 1017,5 20 60 0,0
18.02.2019 13:00:00 16,0 0,5 20,1 5,4 7,7 13 7 29 16 SW 1018,2 20 60 0,0
18.02.2019 12:00:00 14,4 1,0 18,0 5,5 7,7 16 8 33 18 S 1018,8 20 60 0,0
18.02.2019 11:00:00 11,1 1,3 13,3 5,5 7,6 9 5 17 9 E 1019,5 20 60 0,0
18.02.2019 10:00:00 7,0 -0,5 5,8 5,6 7,7 8 5 14 8 ESE 1020,4 20 60 0,0
18.02.2019 09:00:00 0,1 -2,4 -6,0 5,6 7,7 4 2 8 4 E 1021,7 20 36 0,0
18.02.2019 08:00:00 -3,4 -5,4 -6,5 5,7 7,7 3 2 8 5 ESE 1022,0 20 0 0,0
18.02.2019 07:00:00 -2,0 -5,3 -5,4 5,7 7,7 0 0 11 6 N 1021,6 20 0 0,0
18.02.2019 06:00:00 0,4 -3,9 -5,2 5,7 7,7 6 3 12 6 ESE 1021,1 20 0 0,0
18.02.2019 05:00:00 -1,0 -4,2 -5,3 5,8 7,7 5 3 10 5 ESE 1021,5 20 0 0,0
18.02.2019 04:00:00 2,1 -3,8 -2,0 5,8 7,7 7 4 15 8 ESE 1021,3 20 0 0,0
18.02.2019 03:00:00 2,0 -3,1 -2,7 5,8 7,7 9 5 17 9 ESE 1021,6 20 0 0,0
18.02.2019 02:00:00 2,7 -3,6 -1,2 5,9 7,7 6 3 15 8 ESE 1021,8 20 0 0,0
18.02.2019 01:00:00 3,6 -2,6 -2,9 5,8 7,7 9 5 17 9 ESE 1021,8 20 0 0,0
18.02.2019 00:00:00 1,2 -2,7 -3,7 5,8 7,7 10 5 14 8 ESE 1022,3 20 0 0,0
17.02.2019 23:00:00 0,6 -3,3 -3,4 5,8 7,7 7 4 10 6 ESE 1022,8 20 0 0,0
17.02.2019 22:00:00 1,6 -3,7 -2,5 5,8 7,7 9 5 11 6 E 1022,9 20 0 0,0
17.02.2019 21:00:00 3,1 -3,1 -1,9 5,7 7,7 5 3 9 5 ESE 1022,5 20 0 0,0
17.02.2019 20:00:00 5,8 -3,1 0,4 5,6 7,7 5 3 9 5 ESE 1021,8 20 0 0,0
17.02.2019 19:00:00 10,1 -5,9 1,3 5,5 7,7 4 2 5 3 SE 1020,8 20 0 0,0
17.02.2019 18:00:00 15,4 -6,2 7,7 5,4 7,7 0 0 17 9 N 1019,6 20 36 0,0
17.02.2019 17:00:00 18,4 -7,1 18,4 5,4 7,7 9 5 18 10 SW 1019,4 20 60 0,0
17.02.2019 16:00:00 19,3 -6,4 22,1 5,3 7,7 8 4 21 11 WSW 1019,7 20 60 0,0
17.02.2019 15:00:00 19,0 -6,6 22,9 5,3 7,7 13 7 24 13 SSW 1020,1 20 60 0,0
17.02.2019 14:00:00 19,2 -5,7 23,3 5,3 7,7 10 6 26 14 SSW 1020,4 20 60 0,0
17.02.2019 13:00:00 18,2 -6,5 22,1 5,3 7,7 14 7 26 14 S 1021,1 20 60 0,0
17.02.2019 12:00:00 17,3 -6,6 21,8 5,4 7,7 11 6 23 13 SSW 1021,8 20 60 0,0
17.02.2019 11:00:00 15,3 -6,3 16,9 5,4 7,7 3 2 13 7 E 1022,2 20 60 0,0
17.02.2019 10:00:00 9,3 -2,7 6,4 5,5 7,7 5 3 13 7 ESE 1023,0 20 60 0,0
17.02.2019 09:00:00 2,9 -4,1 -3,2 5,5 7,7 5 3 15 8 E 1024,1 20 48 0,0
17.02.2019 08:00:00 2,6 -7,9 -4,1 5,6 7,7 8 4 17 9 E 1023,9 20 0 0,0
17.02.2019 07:00:00 0,6 -7,0 -5,3 5,6 7,7 9 5 13 7 E 1024,0 20 0 0,0
17.02.2019 06:00:00 -0,7 -6,9 -5,5 5,6 7,7 5 3 13 7 E 1024,4 20 0 0,0
17.02.2019 05:00:00 -1,1 -5,3 -5,9 5,7 7,7 8 4 14 7 ESE 1024,2 20 0 0,0
17.02.2019 04:00:00 -1,7 -5,6 -4,5 5,7 7,7 9 5 12 6 E 1024,6 20 0 0,0
17.02.2019 03:00:00 0,7 -6,4 -5,3 5,7 7,7 8 4 16 8 SE 1024,5 20 0 0,0
17.02.2019 02:00:00 1,4 -5,5 -2,7 5,7 7,7 8 4 15 8 ESE 1024,7 20 0 0,0
17.02.2019 01:00:00 2,4 -4,4 -3,1 5,7 7,7 11 6 18 10 ESE 1025,0 20 0 0,0
17.02.2019 00:00:00 0,8 -3,1 -5,0 5,7 7,7 10 5 14 8 ESE 1025,7 20 0 0,0
16.02.2019 23:00:00 0,4 -3,0 -4,7 5,7 7,7 6 3 10 5 ESE 1026,2 17 0 0,0
16.02.2019 22:00:00 1,5 -3,4 -3,3 5,6 7,7 8 5 13 7 ESE 1026,4 20 0 0,0

tt = temperature
td = dewpoint
tt 5cm = temperature 5cm
tt -20cm = temperature -20cm
tt -100cm = temperature -100cm
ff = wind speed
fx = gusts
dd = wind direction
ppp = reduced air pressure
vv = visibility
sd = sunshine duration
rr = precipitation

Next stations